Location: Lake Zurich
(42.1970°N, 88.0930°W)
Time: 18:51:17
(UTC-05:00)

Amateur Radio Satellites - All Passes

Search period start: 28 March 2015 18:21
Search period end: 29 March 2015 18:21
Location: Lake Zurich, 42.1970°N, 88.0930°W

Satellite Date Start Highest point End Downlink Frequencies (MHz)
Time Altitude Azimuth
M-CUBED/EXP-1 PRIME 28 Mar 18:22:43 18:27:36 73° 107° (ESE) 18:32:23 437.505
CUBESAT XI-V 28 Mar 18:24:38 18:27:46 18° 90° (E) 18:31:02 437.345
BEESAT 3 28 Mar 18:36:22 18:39:44 24° 45° (NE) 18:43:06 437.485
HO-68 28 Mar 18:45:33 18:49:04 15° 52° (NE) 18:52:55 435.675
STRAND 1 28 Mar 18:48:46 18:52:08 18° 90° (E) 18:55:40 437.568
AIST 2 28 Mar 19:04:50 19:07:36 17° 40° (NE) 19:10:26 435.215
RS-15 28 Mar 19:17:34 19:28:07 61° 115° (ESE) 19:38:55 29.354- 29.394
GONETS M04 28 Mar 19:18:36 19:26:45 49° 89° (E) 19:35:03
CUTE 1.7 + AOD 2 28 Mar 19:28:31 19:29:24 11° 63° (ENE) 19:30:32 437.475
SO-50 28 Mar 19:29:59 19:34:36 75° 120° (ESE) 19:39:24 436.795
AUBIESAT-1 28 Mar 19:34:25 19:38:30 27° 298° (WNW) 19:42:28 437.475
BEESAT 2 28 Mar 19:35:39 19:39:48 72° 55° (NE) 19:43:53 435.950
PRISM 28 Mar 19:36:40 19:40:52 83° 103° (ESE) 19:45:02 437.425
BRITE-PL 28 Mar 19:38:13 19:42:07 27° 70° (ENE) 19:45:51 437.365/2234.400
Cubesat XI-IV 28 Mar 19:46:56 19:50:23 16° 271° (W) 19:53:37 437.490
CUTE-I 28 Mar 19:47:00 19:50:28 17° 271° (W) 19:53:42 437.470
AAUSAT CUBESAT 2 28 Mar 19:55:35 19:57:19 13° 64° (ENE) 19:59:14 437.432
SEEDS 28 Mar 19:56:58 19:59:49 18° 66° (ENE) 20:02:47 437.485
M-CUBED/EXP-1 PRIME 28 Mar 19:58:57 20:01:56 16° 302° (WNW) 20:04:45 437.505
CUBESAT XI-V 28 Mar 20:01:04 20:05:30 45° 288° (WNW) 20:09:53 437.345
CINEMA 3 28 Mar 20:10:34 20:12:14 12° 64° (ENE) 20:14:05 145.822/145.860
BEESAT 3 28 Mar 20:14:05 20:17:56 38° 243° (WSW) 20:21:40 437.485
Oscar 11 28 Mar 20:15:30 20:16:08 10° 62° (ENE) 20:16:59 145.826/435.025
COMPASS 1 28 Mar 20:20:04 20:23:30 26° 69° (ENE) 20:27:04 437.405
DOVE 4 28 Mar 20:22:19 20:26:10 32° 71° (ENE) 20:29:56 437.250
STRAND 1 28 Mar 20:26:45 20:31:45 55° 289° (WNW) 20:36:43 437.568
HO-68 28 Mar 20:28:35 20:35:41 71° 71° (ENE) 20:42:52 435.675
GOMX 1 28 Mar 20:28:51 20:33:17 57° 74° (ENE) 20:37:30 467.674
CUBEBUG 2 28 Mar 20:29:20 20:30:03 10° 63° (ENE) 20:31:00 437.445
AIST 2 28 Mar 20:42:27 20:46:41 67° 240° (WSW) 20:50:50 435.215
CANX-2 28 Mar 20:46:28 20:50:42 83° 77° (ENE) 20:54:59 2200.000
DANDE 28 Mar 20:58:26 21:00:54 21° 97° (E) 21:03:08 436.750
CUTE 1.7 + AOD 2 28 Mar 21:00:33 21:04:47 76° 258° (WSW) 21:09:04 437.475
SO-50 28 Mar 21:12:23 21:15:45 19° 322° (NW) 21:19:06 436.795
DELFI C3 28 Mar 21:13:34 21:17:09 31° 71° (ENE) 21:20:49 145.870
GONETS M04 28 Mar 21:15:52 21:23:52 38° 290° (WNW) 21:31:47
BEESAT 2 28 Mar 21:16:13 21:17:26 11° 251° (WSW) 21:18:24 435.950
BRITE-PL 28 Mar 21:16:25 21:20:37 30° 264° (W) 21:24:32 437.365/2234.400
UKube-1 28 Mar 21:18:53 21:22:03 21° 66° (ENE) 21:25:19 .
DX 1 28 Mar 21:27:28 21:31:04 26° 68° (ENE) 21:34:45 434.975-435.025
AAUSAT CUBESAT 2 28 Mar 21:28:22 21:32:29 62° 260° (W) 21:36:39 437.432
RS-15 28 Mar 21:30:39 21:41:01 45° 320° (NW) 21:51:34 29.354- 29.394
SEEDS 28 Mar 21:31:23 21:35:22 40° 263° (W) 21:39:22 437.485
HUMSAT D 28 Mar 21:32:12 21:34:52 17° 66° (ENE) 21:37:39 437.325/437.525
CINEMA 3 28 Mar 21:44:53 21:49:03 60° 259° (W) 21:53:10 145.822/145.860
Oscar 11 28 Mar 21:47:25 21:51:43 82° 258° (WSW) 21:56:05 145.826/435.025
COMPASS 1 28 Mar 21:55:34 21:59:10 27° 265° (W) 22:02:44 437.405
FUNcube-1 28 Mar 21:56:36 22:00:40 62° 75° (ENE) 22:04:48 145.935
CUSAT 1 28 Mar 21:56:49 21:59:17 25° 284° (WNW) 22:01:32 437.405
UWE-3 28 Mar 21:58:42 22:02:51 84° 79° (E) 22:07:02 435.000/436.395/437.385
DOVE 4 28 Mar 22:00:37 22:04:03 22° 266° (W) 22:07:18 437.250
CUBEBUG 2 28 Mar 22:02:06 22:06:15 73° 258° (WSW) 22:10:25 437.445
VELOX 1 28 Mar 22:04:05 22:07:49 28° 69° (ENE) 22:11:38 145.980
CUBEBUG 1 28 Mar 22:08:06 22:10:24 15° 64° (ENE) 22:12:53 437.445
AISAT 28 Mar 22:08:14 22:12:08 31° 69° (ENE) 22:16:05 437.250
ZACube-1 28 Mar 22:09:06 22:13:14 89° 79° (ENE) 22:17:26 437.345
GOMX 1 28 Mar 22:09:40 22:11:49 13° 270° (W) 22:13:43 467.674
HO-68 28 Mar 22:18:40 22:24:08 22° 270° (W) 22:29:21 435.675
TIGRISAT 28 Mar 22:19:41 22:21:35 13° 88° (E) 22:23:44 435.000
50 SAT 28 Mar 22:26:19 22:30:02 44° 73° (ENE) 22:33:49 437.505
ESTCUBE 1 28 Mar 22:35:02 22:38:59 30° 69° (ENE) 22:43:00 437.505/2401.250
ANTELSAT 28 Mar 22:48:02 22:51:53 26° 94° (E) 22:55:49 437.575/2403.000
DELFI C3 28 Mar 22:49:16 22:52:25 21° 267° (W) 22:55:30 145.870
UKube-1 28 Mar 22:53:55 22:57:58 38° 262° (W) 23:02:02 .
QB50P1 28 Mar 22:56:21 22:58:45 15° 90° (E) 23:01:20 145.935-145.965
ISS 28 Mar 22:58:05 23:01:03 34° 138° (SE) 23:04:04 145.825
DUCHIFAT 1 28 Mar 22:58:36 23:01:04 16° 91° (E) 23:03:43 145.980
DX 1 28 Mar 23:03:26 23:07:16 29° 264° (W) 23:11:04 434.975-435.025
HUMSAT D 28 Mar 23:06:30 23:10:22 40° 262° (W) 23:14:16 437.325/437.525
QB50P2 28 Mar 23:10:13 23:13:30 22° 93° (E) 23:16:53 145.880/145.840
PCSat 28 Mar 23:15:06 23:19:43 28° 47° (NE) 23:24:22 145.827
YUBILEINY 28 Mar 23:15:49 23:20:33 16° 56° (NE) 23:25:46 435.215
FUNcube-1 28 Mar 23:36:28 23:37:33 11° 273° (W) 23:38:23 145.935
POPSAT HIP 1 28 Mar 23:38:38 23:42:41 44° 98° (E) 23:46:44 437.405
VELOX 1 28 Mar 23:40:28 23:44:22 28° 265° (W) 23:48:11 145.980
CUBEBUG 1 28 Mar 23:42:00 23:46:22 59° 260° (W) 23:50:44 437.445
BUGSAT 1 28 Mar 23:42:02 23:45:41 33° 97° (E) 23:49:21 437.445
UNISAT 6 28 Mar 23:43:39 23:48:15 82° 282° (WNW) 23:52:54 437.425
AISAT 28 Mar 23:45:05 23:48:47 25° 266° (W) 23:52:24 437.250
TISAT 1 28 Mar 23:46:41 23:50:28 33° 70° (ENE) 23:54:18 437.305
RS-15 28 Mar 23:48:59 23:57:19 23° 352° (N) 00:05:47 29.354- 29.394
NANOSAT C BR1 28 Mar 23:49:28 23:53:39 59° 100° (E) 23:57:49 145.865
POLYITAN 1 28 Mar 23:53:00 23:57:14 66° 101° (ESE) 00:01:28 437.675
SPROUT 28 Mar 23:54:03 23:58:10 47° 72° (ENE) 00:02:19 437.525
TIGRISAT 28 Mar 23:54:18 23:58:50 66° 285° (WNW) 00:03:26 435.000
50 SAT 29 Mar 00:03:09 00:05:16 14° 270° (W) 00:07:14 437.505
ESTCUBE 1 29 Mar 00:11:59 00:15:52 27° 266° (W) 00:19:42 437.505/2401.250
SWISSCUBE 29 Mar 00:14:37 00:17:08 15° 62° (ENE) 00:19:51 437.505
BEESAT 29 Mar 00:17:46 00:20:14 15° 62° (ENE) 00:22:54 436.000
ANTELSAT 29 Mar 00:24:37 00:28:42 32° 290° (WNW) 00:32:47 437.575/2403.000
QB50P1 29 Mar 00:30:53 00:34:57 46° 287° (WNW) 00:39:00 145.935-145.965
DUCHIFAT 1 29 Mar 00:33:10 00:37:12 45° 288° (WNW) 00:41:13 145.980
ISS 29 Mar 00:34:27 00:37:28 34° 335° (NNW) 00:40:29 145.825
QB50P2 29 Mar 00:45:41 00:49:30 32° 290° (WNW) 00:53:15 145.880/145.840
PCSat 29 Mar 00:58:10 01:03:24 49° 246° (WSW) 01:08:34 145.827
ITUPSAT 1 29 Mar 01:02:00 01:06:22 37° 70° (ENE) 01:10:49 437.325
YUBILEINY 29 Mar 01:10:28 01:19:20 75° 80° (E) 01:28:06 435.215
POPSAT HIP 1 29 Mar 01:15:28 01:18:17 17° 294° (WNW) 01:20:58 437.405
BUGSAT 1 29 Mar 01:18:01 01:21:01 20° 293° (WNW) 01:23:54 437.445
Oscar 19 29 Mar 01:21:05 01:24:34 19° 91° (E) 01:28:15 437.125/150
TISAT 1 29 Mar 01:23:07 01:26:23 21° 267° (W) 01:29:32 437.305
NANOSAT C BR1 29 Mar 01:26:57 01:29:05 13° 296° (WNW) 01:31:02 145.865
POLYITAN 1 29 Mar 01:30:54 01:32:42 12° 297° (WNW) 01:34:18 437.675
SPROUT 29 Mar 01:31:57 01:34:35 15° 270° (W) 01:37:03 437.525
SWISSCUBE 29 Mar 01:49:42 01:54:30 69° 258° (WSW) 01:59:19 437.505
BEESAT 29 Mar 01:52:47 01:57:34 70° 258° (WSW) 02:02:23 436.000
RS-15 29 Mar 02:05:01 02:14:34 31° 27° (NNE) 02:24:40 29.354- 29.394
KKS-1 29 Mar 02:11:12 02:15:12 35° 70° (ENE) 02:19:15 437.445
ISS 29 Mar 02:12:28 02:14:35 16° 355° (N) 02:16:40 145.825
SO-50 29 Mar 02:21:43 02:24:34 15° 35° (NE) 02:27:33 436.795
ITAMSAT 1 29 Mar 02:24:49 02:28:54 24° 93° (E) 02:33:04 435.822/435.867
ITUPSAT 1 29 Mar 02:40:24 02:44:23 25° 266° (W) 02:48:17 437.325
STARS 29 Mar 02:44:18 02:48:32 50° 72° (ENE) 02:52:47 437.465
Oscar 19 29 Mar 02:59:16 03:04:19 54° 288° (WNW) 03:09:22 437.125/150
YUBILEINY 29 Mar 03:08:42 03:15:21 24° 279° (W) 03:21:38 435.215
Gurwin Techsat 1B 29 Mar 03:09:47 03:14:58 51° 99° (E) 03:20:08 435.225
M-CUBED/EXP-1 PRIME 29 Mar 03:40:29 03:41:47 11° 55° (NE) 03:43:18 437.505
MOZHAYETS 4 29 Mar 03:43:03 03:46:19 20° 66° (ENE) 03:49:45
KKS-1 29 Mar 03:48:26 03:51:58 22° 267° (W) 03:55:24 437.445
ISS 29 Mar 03:49:21 03:51:52 20° 15° (NNE) 03:54:22 145.825
AIST 1 29 Mar 03:50:41 03:54:23 27° 90° (E) 03:58:10
AO-7 29 Mar 03:50:46 03:57:03 24° 91° (E) 04:03:37 29.400- 29.500
O/OREOS (USA 219) 29 Mar 03:52:34 03:56:36 31° 105° (ESE) 04:00:41 437.305
JAS-2 29 Mar 04:00:43 04:06:52 26° 88° (E) 04:12:51 435.910
SO-50 29 Mar 04:01:01 04:05:59 77° 54° (NE) 04:10:56 436.795
ITAMSAT 1 29 Mar 04:03:43 04:08:38 43° 290° (WNW) 04:13:28 435.822/435.867
HORYU 2 29 Mar 04:14:13 04:18:37 51° 100° (E) 04:23:01 437.375
RS-15 29 Mar 04:17:41 04:29:12 79° 55° (NE) 04:41:15 29.354- 29.394
STARS 29 Mar 04:22:42 04:25:21 15° 270° (W) 04:27:50 437.465
AUBIESAT-1 29 Mar 04:48:03 04:51:56 48° 67° (ENE) 04:56:11 437.475
Gurwin Techsat 1B 29 Mar 04:50:33 04:54:38 22° 296° (WNW) 04:58:35 435.225
M-CUBED/EXP-1 PRIME 29 Mar 05:11:59 05:15:58 82° 252° (WSW) 05:20:22 437.505
MOZHAYETS 4 29 Mar 05:18:51 05:23:17 44° 262° (W) 05:27:44
ISS 29 Mar 05:25:25 05:28:40 81° 37° (NE) 05:31:53 145.825
AIST 1 29 Mar 05:28:19 05:32:03 26° 287° (WNW) 05:35:42
GONETS M04 29 Mar 05:28:22 05:35:10 25° 63° (ENE) 05:42:17
CUBESAT XI-V 29 Mar 05:28:43 05:32:05 20° 66° (ENE) 05:35:36 437.345
O/OREOS (USA 219) 29 Mar 05:32:03 05:36:02 28° 302° (WNW) 05:39:59 437.305
AO-7 29 Mar 05:42:25 05:50:42 74° 291° (WNW) 05:58:57 29.400- 29.500
SO-50 29 Mar 05:43:24 05:46:00 14° 251° (WSW) 05:48:23 436.795
JAS-2 29 Mar 05:44:49 05:52:34 66° 289° (WNW) 05:59:41 435.910
HORYU 2 29 Mar 05:51:56 05:54:56 17° 295° (WNW) 05:57:46 437.375
STRAND 1 29 Mar 06:04:51 06:09:11 29° 67° (ENE) 06:13:36 437.568
VERMONT LUNAR 29 Mar 06:18:45 06:21:49 34° 161° (SSE) 06:24:54 437.305
CUTE-I 29 Mar 06:21:50 06:26:04 24° 93° (E) 06:30:23 437.470
Cubesat XI-IV 29 Mar 06:21:53 06:26:08 25° 93° (E) 06:30:30 437.490
AUBIESAT-1 29 Mar 06:24:40 06:27:11 15° 267° (W) 06:29:39 437.475
PRISM 29 Mar 06:27:10 06:31:20 65° 74° (ENE) 06:35:33 437.425
RS-15 29 Mar 06:31:07 06:40:47 31° 254° (WSW) 06:50:21 29.354- 29.394
CUSAT 1 29 Mar 06:49:10 06:51:04 13° 71° (ENE) 06:53:28 437.405
PHONESAT 2.4 29 Mar 06:55:58 06:59:07 31° 159° (SSE) 07:02:18 2401.200-2431.200
ISS 29 Mar 07:03:23 07:04:40 12° 229° (SW) 07:05:51 145.825
CUBESAT XI-V 29 Mar 07:04:45 07:09:16 45° 262° (W) 07:13:47 437.345
GONETS M04 29 Mar 07:24:15 07:33:05 75° 265° (W) 07:41:52
JAS-2 29 Mar 07:32:03 07:36:13 15° 307° (NW) 07:39:55 435.910
DANDE 29 Mar 07:35:01 07:38:20 26° 76° (ENE) 07:42:37 436.750
AO-7 29 Mar 07:37:01 07:42:18 18° 311° (NW) 07:47:14 29.400- 29.500
STRAND 1 29 Mar 07:43:32 07:48:17 36° 263° (W) 07:53:01 437.568
VERMONT LUNAR 29 Mar 07:55:59 07:59:19 66° 177° (S) 08:02:39 437.305
HO-68 29 Mar 07:59:32 08:01:13 11° 83° (E) 08:03:29 435.675
CUTE-I 29 Mar 08:01:20 08:06:22 44° 290° (WNW) 08:11:22 437.470
Cubesat XI-IV 29 Mar 08:01:25 08:06:28 43° 290° (WNW) 08:11:27 437.490
PRISM 29 Mar 08:06:02 08:07:21 11° 272° (W) 08:08:24 437.425
CUSAT 1 29 Mar 08:29:45 08:33:56 63° 261° (W) 08:39:32 437.405
GOMX 1 29 Mar 08:30:57 08:33:18 15° 91° (E) 08:35:53 467.674
CANX-2 29 Mar 08:32:55 08:35:09 14° 89° (E) 08:37:34 2200.000
PHONESAT 2.4 29 Mar 08:33:43 08:37:13 65° 175° (S) 08:40:44 2401.200-2431.200
CUTE 1.7 + AOD 2 29 Mar 08:46:21 08:49:16 18° 91° (E) 08:52:19 437.475
AAUSAT CUBESAT 2 29 Mar 09:11:47 09:14:54 20° 92° (E) 09:18:06 437.432
SEEDS 29 Mar 09:15:22 09:19:10 31° 95° (E) 09:23:00 437.485
DANDE 29 Mar 09:18:07 09:21:35 26° 263° (W) 09:25:53 436.750
BRITE-PL 29 Mar 09:19:32 09:23:44 77° 101° (ESE) 09:28:06 437.365/2234.400
TIGRISAT 29 Mar 09:20:14 09:21:41 12° 63° (ENE) 09:23:22 435.000
GONETS M04 29 Mar 09:24:12 09:28:34 14° 284° (WNW) 09:32:19
BEESAT 2 29 Mar 09:32:57 09:34:22 12° 110° (ESE) 09:36:00 435.950
VERMONT LUNAR 29 Mar 09:33:39 09:36:53 46° 194° (SSW) 09:40:07 437.305
Oscar 11 29 Mar 09:35:19 09:38:13 18° 91° (E) 09:41:15 145.826/435.025
COMPASS 1 29 Mar 09:38:01 09:42:06 45° 98° (E) 09:46:12 437.405
CINEMA 3 29 Mar 09:38:59 09:42:47 29° 95° (E) 09:46:48 145.822/145.860
HO-68 29 Mar 09:43:12 09:50:24 71° 103° (ESE) 09:57:36 435.675
FUNcube-1 29 Mar 09:46:18 09:47:55 12° 88° (E) 09:49:47 145.935
ANTELSAT 29 Mar 09:48:14 09:51:37 24° 68° (ENE) 09:55:07 437.575/2403.000
UWE-3 29 Mar 09:48:55 09:51:42 17° 91° (E) 09:54:41 435.000/436.395/437.385
QB50P1 29 Mar 09:50:38 09:52:36 13° 64° (ENE) 09:54:45 145.935-145.965
DUCHIFAT 1 29 Mar 09:52:34 09:54:36 14° 64° (ENE) 09:56:48 145.980
CUBEBUG 2 29 Mar 09:52:55 09:56:21 22° 93° (E) 09:59:58 437.445
DOVE 4 29 Mar 09:57:20 10:01:39 86° 103° (ESE) 10:06:12 437.250
ZACube-1 29 Mar 09:58:06 10:00:53 17° 91° (E) 10:03:52 437.345
QB50P2 29 Mar 10:04:18 10:07:14 19° 67° (ENE) 10:10:16 145.880/145.840
CANX-2 29 Mar 10:07:15 10:11:28 52° 286° (WNW) 10:15:39 2200.000
GOMX 1 29 Mar 10:07:40 10:11:46 49° 286° (WNW) 10:16:04 467.674
BEESAT 3 29 Mar 10:07:48 10:11:28 33° 116° (ESE) 10:15:13 437.485
PHONESAT 2.4 29 Mar 10:11:59 10:15:26 52° 192° (SSW) 10:18:54 2401.200-2431.200
CUTE 1.7 + AOD 2 29 Mar 10:21:21 10:25:25 40° 288° (WNW) 10:29:26 437.475
DELFI C3 29 Mar 10:27:27 10:31:27 50° 99° (E) 10:35:27 145.870
POPSAT HIP 1 29 Mar 10:32:06 10:35:56 35° 71° (ENE) 10:39:49 437.405
BUGSAT 1 29 Mar 10:32:53 10:36:20 26° 69° (ENE) 10:39:50 437.445
UKube-1 29 Mar 10:40:59 10:44:52 32° 97° (E) 10:48:46 .
AIST 2 29 Mar 10:41:34 10:44:53 23° 113° (ESE) 10:48:19 435.215
NANOSAT C BR1 29 Mar 10:42:35 10:46:36 46° 73° (ENE) 10:50:40 145.865
UNISAT 6 29 Mar 10:43:18 10:47:34 87° 257° (WSW) 10:51:55 437.425
POLYITAN 1 29 Mar 10:46:33 10:50:39 53° 73° (ENE) 10:54:46 437.675
AAUSAT CUBESAT 2 29 Mar 10:46:47 10:50:40 35° 289° (WNW) 10:54:30 437.432
HUMSAT D 29 Mar 10:50:07 10:53:51 30° 95° (E) 10:57:39 437.325/437.525
DX 1 29 Mar 10:50:43 10:54:53 44° 99° (E) 10:59:02 434.975-435.025
SEEDS 29 Mar 10:51:23 10:54:53 24° 291° (WNW) 10:58:16 437.485
TIGRISAT 29 Mar 10:53:42 10:57:56 69° 258° (WSW) 11:02:15 435.000
BEESAT 2 29 Mar 11:07:56 11:12:02 68° 305° (NW) 11:16:12 435.950
Oscar 11 29 Mar 11:10:30 11:14:39 42° 288° (WNW) 11:18:45 145.826/435.025
VERMONT LUNAR 29 Mar 11:12:06 11:14:09 15° 209° (SSW) 11:16:09 437.305
COMPASS 1 29 Mar 11:14:41 11:17:30 17° 294° (WNW) 11:20:10 437.405
CINEMA 3 29 Mar 11:16:14 11:19:58 27° 290° (WNW) 11:23:47 145.822/145.860
FUNcube-1 29 Mar 11:20:23 11:24:44 64° 285° (WNW) 11:29:08 145.935
QB50P1 29 Mar 11:23:54 11:28:04 58° 260° (W) 11:32:15 145.935-145.965
UWE-3 29 Mar 11:24:18 11:28:32 47° 287° (WNW) 11:32:50 435.000/436.395/437.385
ANTELSAT 29 Mar 11:24:30 11:28:19 31° 265° (W) 11:32:09 437.575/2403.000
DUCHIFAT 1 29 Mar 11:25:53 11:30:02 57° 260° (W) 11:34:10 145.980
CUBEBUG 2 29 Mar 11:29:08 11:33:10 35° 289° (WNW) 11:37:15 437.445
VELOX 1 29 Mar 11:29:55 11:34:13 50° 99° (E) 11:38:31 145.980
CUBEBUG 1 29 Mar 11:31:01 11:34:29 24° 94° (E) 11:38:02 437.445
HO-68 29 Mar 11:31:55 11:37:35 25° 301° (WNW) 11:43:03 435.675
ZACube-1 29 Mar 11:33:20 11:37:32 46° 287° (WNW) 11:41:47 437.345
AISAT 29 Mar 11:34:29 11:38:51 59° 101° (E) 11:43:11 437.250
50 SAT 29 Mar 11:38:13 11:42:15 69° 101° (ESE) 11:46:17 437.505
QB50P2 29 Mar 11:38:56 11:42:54 39° 262° (W) 11:46:53 145.880/145.840
BEESAT 3 29 Mar 11:46:03 11:49:35 26° 314° (NW) 11:53:06 437.485
PHONESAT 2.4 29 Mar 11:50:47 11:53:24 19° 207° (SSW) 11:55:58 2401.200-2431.200
ESTCUBE 1 29 Mar 12:03:25 12:07:55 61° 101° (E) 12:12:22 437.505/2401.250
DELFI C3 29 Mar 12:03:55 12:06:16 15° 295° (WNW) 12:08:27 145.870
BUGSAT 1 29 Mar 12:08:15 12:11:48 26° 265° (W) 12:15:16 437.445
POPSAT HIP 1 29 Mar 12:08:50 12:11:59 20° 268° (W) 12:15:01 437.405
UKube-1 29 Mar 12:17:25 12:20:53 23° 293° (WNW) 12:24:16 .
AIST 2 29 Mar 12:19:18 12:23:18 38° 310° (NW) 12:27:21 435.215
YUBILEINY 29 Mar 12:19:47 12:24:28 17° 78° (ENE) 12:29:44 435.215
NANOSAT C BR1 29 Mar 12:20:14 12:22:47 15° 270° (W) 12:25:10 145.865
POLYITAN 1 29 Mar 12:24:50 12:26:59 13° 271° (W) 12:28:56 437.675
HUMSAT D 29 Mar 12:26:03 12:29:31 24° 291° (WNW) 12:32:57 437.325/437.525
DX 1 29 Mar 12:27:50 12:30:51 18° 295° (WNW) 12:33:44 434.975-435.025
Oscar 19 29 Mar 12:38:16 12:42:34 29° 67° (ENE) 12:46:58 437.125/150
BEESAT 2 29 Mar 12:49:48 12:51:02 11° 325° (NW) 12:52:08 435.950
Gurwin Techsat 1B 29 Mar 12:55:33 12:57:23 12° 59° (ENE) 12:59:30 435.225
TISAT 1 29 Mar 13:06:05 13:10:14 57° 100° (E) 13:14:21 437.305
CUBEBUG 1 29 Mar 13:07:05 13:10:56 31° 290° (WNW) 13:14:42 437.445
VELOX 1 29 Mar 13:07:37 13:10:27 16° 296° (WNW) 13:13:07 145.980
AISAT 29 Mar 13:12:34 13:15:02 14° 296° (WNW) 13:17:20 437.250
50 SAT 29 Mar 13:15:37 13:16:41 11° 296° (WNW) 13:17:33 437.505
SPROUT 29 Mar 13:16:02 13:20:21 90° 96° (E) 13:24:38 437.525
ESTCUBE 1 29 Mar 13:41:47 13:44:21 15° 297° (WNW) 13:46:43 437.505/2401.250
ITAMSAT 1 29 Mar 13:43:04 13:47:50 38° 69° (ENE) 13:52:41 435.822/435.867
SWISSCUBE 29 Mar 13:50:02 13:54:10 29° 95° (E) 13:58:21 437.505
BEESAT 29 Mar 13:53:01 13:57:09 29° 95° (E) 14:01:18 436.000
PCSat 29 Mar 13:58:33 14:02:17 20° 107° (ESE) 14:06:14 145.827
O/OREOS (USA 219) 29 Mar 14:01:33 14:06:06 66° 65° (ENE) 14:10:35 437.305
YUBILEINY 29 Mar 14:11:18 14:20:06 84° 97° (E) 14:29:00 435.215
JAS-2 29 Mar 14:15:40 14:18:56 14° 52° (NE) 14:22:42 435.910
Oscar 19 29 Mar 14:17:10 14:21:50 35° 264° (W) 14:26:31 437.125/150
Gurwin Techsat 1B 29 Mar 14:31:19 14:36:37 83° 77° (ENE) 14:41:59 435.225
ITUPSAT 1 29 Mar 14:39:25 14:44:16 83° 103° (ESE) 14:49:03 437.325
TISAT 1 29 Mar 14:43:28 14:45:37 14° 296° (WNW) 14:47:36 437.305
AO-7 29 Mar 14:50:12 14:57:31 37° 60° (ENE) 15:04:58 29.400- 29.500
HORYU 2 29 Mar 15:13:01 15:17:17 49° 72° (ENE) 15:21:37 437.375
ITAMSAT 1 29 Mar 15:23:02 15:27:28 27° 266° (W) 15:31:50 435.822/435.867
SWISSCUBE 29 Mar 15:27:48 15:32:02 31° 292° (WNW) 15:36:10 437.505
BEESAT 29 Mar 15:30:45 15:34:59 31° 292° (WNW) 15:39:09 436.000
AIST 1 29 Mar 15:34:09 15:38:30 82° 81° (E) 15:42:47
KKS-1 29 Mar 15:37:51 15:42:17 67° 102° (ESE) 15:46:43 437.445
PCSat 29 Mar 15:39:57 15:45:18 59° 304° (WNW) 15:50:41 145.827
O/OREOS (USA 219) 29 Mar 15:43:04 15:45:00 12° 261° (W) 15:46:41 437.305
JAS-2 29 Mar 15:55:43 16:02:32 64° 71° (ENE) 16:10:06 435.910
STARS 29 Mar 16:09:45 16:14:10 86° 287° (WNW) 16:18:35 437.465
YUBILEINY 29 Mar 16:11:35 16:18:14 22° 299° (WNW) 16:24:34 435.215
Gurwin Techsat 1B 29 Mar 16:15:08 16:17:24 12° 274° (W) 16:19:20 435.225
ITUPSAT 1 29 Mar 16:19:30 16:21:33 12° 299° (WNW) 16:23:22 437.325
AO-7 29 Mar 16:42:00 16:50:06 54° 259° (WSW) 16:58:11 29.400- 29.500
HORYU 2 29 Mar 16:51:31 16:54:18 16° 270° (W) 16:56:55 437.375
MOZHAYETS 4 29 Mar 17:13:26 17:17:50 41° 97° (E) 17:22:14
KKS-1 29 Mar 17:16:17 17:18:27 13° 297° (WNW) 17:20:25 437.445
PCSat 29 Mar 17:27:34 17:29:59 13° 326° (NW) 17:32:13 145.827
JAS-2 29 Mar 17:42:30 17:48:14 26° 272° (W) 17:54:13 435.910
CUTE-I 29 Mar 17:43:57 17:48:57 42° 69° (ENE) 17:54:01 437.470
Cubesat XI-IV 29 Mar 17:44:09 17:49:11 43° 70° (ENE) 17:54:16 437.490
BEESAT 2 29 Mar 17:50:30 17:52:22 13° 37° (NE) 17:54:21 435.950
AUBIESAT-1 29 Mar 18:03:19 18:07:51 39° 102° (ESE) 18:12:18 437.475
